Weather History for Cincinnati, OH

Change the Weather History Date:

Friday, March 14, 2014

  Actual Average Record
Temperature  
Mean Temperature 46 °F -  
Max Temperature 64 °F 54 °F 80 °F (1990)
Min Temperature 28 °F 34 °F 12 °F (1960)
Degree Days  
Heating Degree Days 20    
Moisture  
Dew Point 27 °F    
Average Humidity 48    
Maximum Humidity 82    
Minimum Humidity 28    
Precipitation  
Precipitation 0.00 in - - ()
Sea Level Pressure  
Sea Level Pressure 29.95 in    
Wind  
Wind Speed 12 mph (SW)    
Max Wind Speed 37 mph    
Max Gust Speed 47 mph    
Visibility 10 miles    
Events      
Averages and records for this station are not official NWS values.
T = Trace of Precipitation, MM = Missing Value Source: NWS Daily Summary

Daily Weather History Graph

Daily Weather History Graph

Search for Another Location

Airport:

Trip Planner

Search our weather history database for the weather conditions in past years. The results will help you decide how hot, cold, wet, or windy it might be!

Date:

Astronomy

Mar. 14, 2014 Rise Set
Actual Time 7:50 AM EDT 7:43 PM EDT
Civil Twilight 7:23 AM EDT 8:10 PM EDT
Nautical Twilight 6:52 AM EDT 8:41 PM EDT
Astronomical Twilight 6:21 AM EDT 9:12 PM EDT
Moon 6:05 PM EDT (3/14) 6:29 AM EDT (3/14)
Length of Visible Light 12h 46m
Length of Day
11h 53m
Waxing Gibbous, 96% of the Moon is Illuminated
Mar 14
Waxing Gibbous
Mar 16
Full
Mar 23
Last Quarter
Mar 30
New
Apr 7
First Quarter

Hourly Weather History & Observations

Time (EDT) Temp. Windchill Dew Point Humidity Pressure Visibility Wind Dir Wind Speed Gust Speed Precip Events Conditions
12:53 AM 32.0 °F 26.4 °F 21.9 °F 66% 30.13 in 10.0 mi SSW 5.8 mph - N/A   Clear
1:53 AM 32.0 °F 27.5 °F 21.9 °F 66% 30.11 in 10.0 mi SW 4.6 mph - N/A   Clear
2:53 AM 30.0 °F 26.5 °F 21.9 °F 72% 30.10 in 10.0 mi WSW 3.5 mph - N/A   Clear
3:53 AM 28.9 °F - 21.9 °F 75% 30.08 in 10.0 mi Calm Calm - N/A   Clear
4:53 AM 30.0 °F 24.1 °F 25.0 °F 82% 30.07 in 10.0 mi WSW 5.8 mph - N/A   Clear
5:53 AM 30.9 °F 26.2 °F 25.0 °F 79% 30.05 in 10.0 mi West 4.6 mph - N/A   Clear
6:53 AM 28.9 °F - 19.9 °F 69% 30.04 in 10.0 mi Calm Calm - N/A   Clear
7:53 AM 32.0 °F 28.7 °F 21.0 °F 64% 30.04 in 10.0 mi SSW 3.5 mph - N/A   Clear
8:53 AM 41.0 °F 33.5 °F 25.0 °F 53% 30.04 in 10.0 mi SW 13.8 mph - N/A   Clear
9:53 AM 46.9 °F - 27.0 °F 46% 30.03 in 10.0 mi SW 15.0 mph - N/A   Clear
10:53 AM 52.0 °F - 28.9 °F 41% 30.01 in 10.0 mi SSW 19.6 mph 31.1 mph N/A   Clear
11:53 AM 57.0 °F - 30.9 °F 37% 29.97 in 10.0 mi SSW 24.2 mph 31.1 mph N/A   Clear
12:53 PM 59.0 °F - 30.9 °F 35% 29.94 in 10.0 mi SSW 23.0 mph 27.6 mph N/A   Clear
1:53 PM 60.1 °F - 32.0 °F 35% 29.90 in 10.0 mi SSW 26.5 mph 35.7 mph N/A   Clear
2:53 PM 63.0 °F - 30.0 °F 29% 29.85 in 10.0 mi SW 31.1 mph 41.4 mph N/A   Clear
3:53 PM 63.0 °F - 28.9 °F 28% 29.83 in 10.0 mi SSW 36.8 mph 47.2 mph N/A   Clear
4:53 PM 62.1 °F - 28.9 °F 29% 29.81 in 10.0 mi SW 24.2 mph 43.7 mph N/A   Clear
5:53 PM 60.1 °F - 28.0 °F 30% 29.81 in 10.0 mi SW 23.0 mph 38.0 mph N/A   Clear
6:53 PM 60.1 °F - 30.0 °F 32% 29.81 in 10.0 mi SSW 19.6 mph 31.1 mph N/A   Clear
7:53 PM 60.1 °F - 28.0 °F 30% 29.82 in 10.0 mi SSW 18.4 mph 36.8 mph N/A   Mostly Cloudy
8:53 PM 57.9 °F - 30.9 °F 36% 29.84 in 10.0 mi SW 17.3 mph 24.2 mph N/A   Mostly Cloudy
9:53 PM 57.9 °F - 32.0 °F 37% 29.85 in 10.0 mi SW 13.8 mph - N/A   Overcast
10:53 PM 55.9 °F - 33.1 °F 42% 29.86 in 10.0 mi SSW 15.0 mph 24.2 mph N/A   Partly Cloudy
11:53 PM 55.9 °F - 35.1 °F 45% 29.87 in 10.0 mi WSW 23.0 mph 31.1 mph 0.00 in   Overcast